Tracking 27420 objects as of 28-May-2023
HD Live streaming from Space Station
objects crossing your sky now

STARLINK-6269

Track STARLINK-6269 now!
10-day predictions
STARLINK-6269 is classified as:


NORAD ID: 56402
Int'l Code: 2023-061AE
Perigee: 360.6 km
Apogee: 363.7 km
Inclination: 43.0 °
Period: 91.6 minutes
Semi major axis: 6733 km
RCS: Unknown
Launch date: May 4, 2023
Source: United States (US)
Launch site: AIR FORCE EASTERN TEST RANGE (AFETR)
Your satellite tracking list
Your tracking list is empty




NASA's NSSDC Master Catalog

Two Line Element Set (TLE):
1 56402U 23061AE  23148.21631629  .00001444  00000-0  14460-4 0  9999
2 56402  42.9991 327.2814 0002320 268.9830  91.0772 15.71355180  3772
Source of the keplerian elements: AFSPC